[[{"header":{"parameterUnit":"m.s-1","parameterCategory":2,"la1":30.2991,"la2":30.254,"lo1":-89.0895,"lo2":-89.0444,"dy":0.0017,"dx":0.0017,"nx":28,"ny":28,"refTime":"2025-08-16T09:00:00:Z","depth":"0","parameterNumber":2,"parameterNumberName":"U-component_of_CURRENTS"},"data":[0,0,0,0,0,0,0,0,0,0,0,0,0,0,0,0,0,0,0,0,0,0,0,0,0,0,0,0,0,0,0,0,0,0,0,0,0,0,0,0,0,0,0,0,0,0,0,0,0,0,0,0,0,0,0,0,0,0,0.2912,0.2913,0,0.295,0.2951,0.2951,0.2924,0.2923,0.2922,0.2921,0.2921,0.2921,0.2922,0,0,0,0,0,0,0,0,0,0,0,0,0,0.2891,0.2891,0.2912,0.2913,0.2914,0.295,0.2951,0.2951,0.2924,0.2923,0.2922,0.2921,0.292,0.2921,0.2922,0,0,0,0,0,0,0,0,0,0,0,0,0,0.2909,0.2891,0.2912,0.2907,0.2907,0.295,0.2951,0.2951,0.2924,0.2923,0.2921,0.292,0.292,0.2921,0.2922,0.2958,0,0,0.2926,0.2927,0,0,0,0,0,0,0,0,0.2908,0.2909,0.2907,0.2907,0.2908,0.2934,0.2943,0.2952,0.2924,0.2914,0.2921,0.2919,0.2925,0.2925,0.2932,0.2958,0.2958,0.2926,0.2927,0.2928,0.2928,0,0,0,0,0,0,0,0.2906,0.2908,0.2924,0.2908,0.2908,0.2929,0.2929,0.2945,0.2923,0.2915,0.2914,0.2924,0.2924,0.293,0.2931,0.2958,0.2926,0.2928,0.2928,0.2929,0.3039,0.3041,0,0,0,0,0,0,0.2906,0.2906,0.2923,0.2925,0.2908,0.293,0.293,0.2924,0.2924,0.2924,0.2925,0.2922,0.2929,0.293,0.2931,0.3011,0.2928,0.2929,0.293,0.3037,0.3039,0.3041,0,0,0,0,0,0,0.2905,0.2906,0.2921,0.292,0.2924,0.2932,0.2926,0.2926,0.2929,0.2933,0.2931,0.2928,0.2928,0.2929,0.2953,0.3009,0.293,0.2931,0.3034,0.3037,0.304,0.3146,0,0,0,0,0,0,0.2904,0.2905,0.2905,0.292,0.2924,0.2947,0.2927,0.2927,0.2939,0.2936,0.2936,0.2934,0.2927,0.2951,0.2954,0.3009,0.2932,0.3031,0.3035,0.3039,0.314,0.3153,0.3163,0,0,0,0,0,0.2903,0.2908,0.2905,0.2907,0.2922,0.2948,0.2952,0.2952,0.2941,0.2948,0.2952,0.2934,0.2979,0.2954,0.2957,0.3014,0.3029,0.3034,0.3039,0.3135,0.315,0.3163,0,0,0,0,0,0,0.29,0.2906,0.2903,0.2909,0.2928,0.2944,0.2958,0.2957,0.2968,0.2963,0.2956,0.2957,0.3004,0.299,0.2962,0.3057,0.3004,0.301,0.3076,0.309,0.3102,0.3066,0.2933,0,0,0,0,0,0.2901,0.2902,0.2918,0.2924,0.2935,0.2947,0.2959,0.296,0.2973,0.2974,0.2977,0.2991,0.3029,0.3041,0.3059,0.3106,0.3103,0.3145,0.3157,0.3167,0.3141,0.3215,0.3231,0.3057,0.3057,0.3057,0,0,0.2906,0.2908,0.2911,0.2925,0.2938,0.2968,0.295,0.2971,0.3005,0.2975,0.3015,0.3029,0.305,0.3108,0.3128,0.3101,0.322,0.3173,0.3182,0.3149,0.3222,0.3239,0.3254,0.3061,0.306,0.306,0,0,0.2923,0.2916,0.2928,0.2947,0.297,0.2983,0.299,0.301,0.3026,0.3073,0.3072,0.3106,0.3153,0.3179,0.3203,0.3286,0.3281,0.3307,0.334,0.3415,0.3429,0.3442,0.3478,0.3494,0.3313,0.3313,0.3314,0,0.2928,0.2938,0.2939,0.2964,0.2983,0.2992,0.3021,0.3055,0.3081,0.3103,0.3095,0.3178,0.319,0.3273,0.3301,0.3314,0.334,0.3289,0.343,0.3443,0.3454,0.3488,0.3503,0.3319,0.3318,0.3318,0.3317,0,0.2958,0.2972,0.2985,0.3014,0.3038,0.3062,0.3106,0.3136,0.3158,0.3187,0.326,0.3285,0.3322,0.336,0.3356,0.3452,0.344,0.3441,0.3394,0.3478,0.3509,0.3523,0.3327,0.3325,0.3324,0.3322,0,0,0.2947,0.2994,0.2998,0.3017,0.3061,0.3082,0.3152,0.3208,0.3252,0.3299,0.3361,0.3432,0.3424,0.3446,0.3461,0.3519,0.3632,0.3511,0.3513,0.3545,0.3783,0.3637,0.3638,0.3674,0.3676,0.3678,0.3779,0,0.2966,0.3007,0.3033,0.3085,0.3108,0.3146,0.3207,0.3263,0.3316,0.3382,0.3433,0.3496,0.3472,0.3499,0.3556,0.3615,0.3671,0.3602,0.3696,0.3697,0.3556,0.365,0.3454,0.3515,0.3792,0.3795,0.3796,0,0.298,0.3005,0.3047,0.3106,0.3121,0.3158,0.3235,0.3296,0.3397,0.344,0.3503,0.3541,0.3624,0.3599,0.3724,0.3688,0.3727,0.3768,0.3774,0.3596,0.3576,0.3472,0.3529,0.3438,0.3817,0.3815,0.3814,0,0.2951,0.3013,0.3037,0.3059,0.3133,0.3163,0.321,0.3301,0.3365,0.3474,0.3531,0.3619,0.3679,0.3752,0.3803,0.379,0.3936,0.3936,0.3839,0.3829,0.365,0.3618,0.3615,0.4023,0.4023,0.4023,0.4023,0,0.2947,0.2968,0.3022,0.3041,0.3083,0.314,0.3211,0.3272,0.338,0.3457,0.3544,0.3617,0.3727,0.3813,0.3847,0.3868,0.3975,0.384,0.385,0.3681,0.3652,0.3549,0.3519,0.4027,0.4026,0.4025,0.4024,0,0.2905,0.2939,0.2977,0.3049,0.3067,0.3098,0.3205,0.3263,0.3364,0.3473,0.3514,0.3655,0.3739,0.3816,0.3941,0.3912,0.3834,0.3938,0.3702,0.3678,0.3447,0.3429,0.3299,0.321,0.3845,0.3842,0.3839,0,0.288,0.2892,0.2967,0.2989,0.3017,0.3077,0.3123,0.3236,0.331,0.3482,0.3533,0.3651,0.3694,0.3795,0.3772,0.3788,0.3724,0.362,0.3536,0.3396,0.3388,0.3294,0.3225,0.3368,0.3362,0.3357,0.3353,0,0.2845,0.287,0.291,0.2959,0.2999,0.3048,0.3127,0.3184,0.3322,0.3392,0.3489,0.3534,0.3596,0.3507,0.3506,0.3497,0.3407,0.3512,0.3458,0.3066,0.2877,0.2808,0.333,0.3308,0.3312,0.3316,0.3318,0.332,0.2817,0.2837,0.2896,0.2926,0.2968,0.3,0.3002,0.3091,0.3156,0.3206,0.3348,0.3307,0.3296,0.3238,0.3213,0.3018,0.3078,0.2916,0.2928,0.2863,0.2684,0.3066,0.2989,0.2992,0.2994,0.2996,0.2998,0,0.278,0.2815,0.2858,0.2885,0.2873,0.2922,0.2979,0.2947,0.2943,0.2998,0.3013,0.2917,0.28,0.2769,0.2613,0.2483,0.2403,0.2406,0.2264,0.2246,0.2669,0.2551,0.2264,0.2264,0.2264,0.2264,0.2264,0.2264,0.2773,0.2795,0.2814,0.2775,0.2769,0.2706,0.2697,0.2656,0.2661,0.2537,0.243,0.2433,0.2457,0.2349,0.2167,0.2108,0.1988,0.1832,0.1912,0.2239,0.2288,0.2336,0.2218,0.1866,0.1865,0.137,0.1366,0.1363]},{"header":{"parameterUnit":"m.s-1","parameterCategory":2,"la1":30.2991,"la2":30.254,"lo1":-89.0895,"lo2":-89.0444,"dy":0.0017,"dx":0.0017,"nx":28,"ny":28,"refTime":"2025-08-16T09:00:00:Z","depth":"0","parameterNumber":3,"parameterNumberName":"V-component_of_CURRENTS"},"data":[0,0,0,0,0,0,0,0,0,0,0,0,0,0,0,0,0,0,0,0,0,0,0,0,0,0,0,0,0,0,0,0,0,0,0,0,0,0,0,0,0,0,0,0,0,0,0,0,0,0,0,0,0,0,0,0,0,0,0.0355,0.0355,0,0.0337,0.0337,0.0337,0.0312,0.0312,0.0312,0.0311,0.0262,0.0261,0.026,0,0,0,0,0,0,0,0,0,0,0,0,0,0.0346,0.0346,0.0355,0.0355,0.0355,0.0337,0.0337,0.0337,0.0312,0.0312,0.0312,0.0311,0.0262,0.0261,0.026,0,0,0,0,0,0,0,0,0,0,0,0,0,0.034,0.0346,0.0355,0.0341,0.034,0.0337,0.0337,0.0336,0.0312,0.0312,0.0311,0.0311,0.0263,0.0261,0.026,0.0259,0,0,0.0255,0.0254,0,0,0,0,0,0,0,0,0.034,0.034,0.0343,0.0342,0.0341,0.0328,0.0316,0.0309,0.0312,0.0321,0.0311,0.0311,0.0282,0.0279,0.0275,0.0257,0.0255,0.0255,0.0254,0.0253,0.0253,0,0,0,0,0,0,0,0.0341,0.0341,0.0346,0.0343,0.0342,0.0329,0.0328,0.0314,0.0303,0.0321,0.0319,0.0319,0.0281,0.0277,0.0274,0.0254,0.0255,0.0254,0.0253,0.0252,0.0252,0.0253,0,0,0,0,0,0,0.0348,0.0341,0.0347,0.0346,0.0341,0.033,0.0328,0.0331,0.0304,0.03,0.032,0.0318,0.028,0.0276,0.0272,0.0295,0.0253,0.0252,0.0251,0.0251,0.0252,0.0253,0,0,0,0,0,0,0.0347,0.0348,0.0348,0.0344,0.0343,0.0331,0.0334,0.0331,0.0327,0.0304,0.0299,0.0319,0.0279,0.0274,0.0269,0.0291,0.0251,0.025,0.025,0.0251,0.0252,0.0323,0,0,0,0,0,0,0.0347,0.0348,0.0352,0.0345,0.0344,0.0353,0.0334,0.0331,0.0329,0.0327,0.0301,0.0296,0.0279,0.0272,0.0268,0.0288,0.0249,0.0248,0.025,0.0252,0.032,0.0327,0.0333,0,0,0,0,0,0.0347,0.0358,0.0352,0.0353,0.035,0.0354,0.0353,0.0341,0.0329,0.0334,0.0319,0.0297,0.028,0.0271,0.0266,0.0287,0.0248,0.025,0.0252,0.0317,0.0325,0.0333,0,0,0,0,0,0,0.0352,0.0356,0.035,0.036,0.036,0.0351,0.0354,0.0344,0.0336,0.0331,0.0306,0.0301,0.0305,0.0286,0.0277,0.0292,0.0261,0.0263,0.0312,0.032,0.0327,0.0343,0.0247,0,0,0,0,0,0.0357,0.0367,0.0365,0.0372,0.0374,0.0364,0.0363,0.0355,0.0347,0.0343,0.0327,0.0313,0.0311,0.0307,0.0296,0.0302,0.03,0.0313,0.032,0.0325,0.0335,0.0359,0.0369,0.026,0.026,0.026,0,0,0.0362,0.0363,0.0369,0.0374,0.0371,0.0389,0.0362,0.0365,0.0382,0.0339,0.0352,0.0332,0.0317,0.0327,0.0328,0.0314,0.0356,0.0328,0.0333,0.034,0.0362,0.0373,0.0383,0.0261,0.0261,0.0261,0,0,0.0383,0.0378,0.0398,0.0404,0.0406,0.0402,0.0406,0.04,0.0401,0.041,0.0388,0.0387,0.0374,0.0375,0.0373,0.041,0.0389,0.0399,0.0448,0.0471,0.0481,0.0489,0.0504,0.0513,0.0405,0.0405,0.0405,0,0.0389,0.0414,0.0403,0.0426,0.0439,0.0414,0.0443,0.0443,0.0436,0.045,0.0424,0.0428,0.0405,0.0437,0.0443,0.0427,0.0429,0.042,0.0482,0.049,0.0497,0.051,0.0519,0.0409,0.0408,0.0408,0.0407,0,0.0431,0.0451,0.0463,0.0488,0.0498,0.0515,0.0519,0.0527,0.0519,0.0523,0.0545,0.0516,0.0524,0.0513,0.0485,0.0527,0.0508,0.0487,0.0464,0.0513,0.0522,0.0531,0.0414,0.0413,0.0411,0.0411,0,0,0.0451,0.0487,0.0492,0.0521,0.0534,0.0552,0.0582,0.0612,0.065,0.0631,0.0684,0.0659,0.064,0.0636,0.0603,0.0609,0.0652,0.0568,0.0567,0.0588,0.07,0.064,0.0642,0.064,0.0642,0.0644,0.0687,0,0.049,0.0548,0.0555,0.0615,0.0649,0.0647,0.0685,0.0707,0.0719,0.0761,0.0739,0.077,0.069,0.07,0.0693,0.0669,0.0677,0.0642,0.0645,0.0645,0.0591,0.0651,0.0615,0.0647,0.0695,0.0697,0.0698,0,0.0536,0.0571,0.0634,0.0696,0.0712,0.0743,0.0808,0.0841,0.0885,0.0898,0.0912,0.0897,0.0907,0.0833,0.0818,0.0798,0.0754,0.0724,0.0725,0.0651,0.06,0.0605,0.066,0.0565,0.071,0.0709,0.0708,0,0.0569,0.0631,0.0685,0.0705,0.0765,0.08,0.0835,0.0884,0.094,0.0994,0.1048,0.1034,0.1064,0.1,0.0915,0.0879,0.0898,0.0848,0.0754,0.0749,0.071,0.0698,0.0678,0.0846,0.0846,0.0846,0.0846,0,0.0617,0.0663,0.0707,0.0742,0.0824,0.0848,0.0945,0.0976,0.1052,0.1152,0.1123,0.1201,0.1109,0.1098,0.0984,0.0899,0.0957,0.078,0.0765,0.0732,0.0722,0.0628,0.056,0.0848,0.0847,0.0847,0.0847,0,0.0655,0.0677,0.0752,0.0819,0.0843,0.0908,0.1016,0.1094,0.1151,0.1285,0.1316,0.1357,0.1346,0.123,0.1157,0.1017,0.0855,0.0875,0.0833,0.0811,0.0601,0.0538,0.0495,0.0454,0.0784,0.0783,0.0782,0,0.0681,0.0718,0.0806,0.0857,0.0891,0.0985,0.1059,0.1135,0.1232,0.139,0.1471,0.1507,0.1546,0.1397,0.1164,0.097,0.086,0.08,0.0711,0.06,0.0521,0.0483,0.045,0.0695,0.0694,0.0692,0.0691,0,0.0736,0.0761,0.0824,0.0923,0.1004,0.1114,0.1228,0.1319,0.1442,0.1561,0.172,0.1763,0.1624,0.1418,0.1131,0.098,0.0709,0.0764,0.0678,0.0473,0.0406,0.0356,0.0649,0.068,0.0681,0.0682,0.0682,0.0683,0.0774,0.083,0.0905,0.1001,0.1098,0.1234,0.134,0.1478,0.1646,0.1829,0.1878,0.1941,0.1632,0.1235,0.1027,0.0611,0.0634,0.0475,0.0419,0.0401,0.0324,0.0578,0.0564,0.0564,0.0565,0.0565,0.0565,0,0.0822,0.0884,0.0978,0.11,0.1211,0.1255,0.1447,0.1567,0.177,0.1908,0.203,0.1873,0.1507,0.112,0.0557,0.0306,0.0234,0.0188,0.0139,0.0129,0.0387,0.0343,0.0246,0.0246,0.0247,0.0247,0.0247,0.0247,0.0853,0.0942,0.0989,0.1164,0.1255,0.142,0.1534,0.1712,0.1843,0.1973,0.1965,0.1954,0.1626,0.0733,0.0166,0.0047,-0.0088,-0.0146,-0.0179,-0.0011,0.0013,0.0035,-0.002,-0.0191,-0.0192,-0.0406,-0.0409,-0.041]}],[{"header":{"parameterUnit":"m.s-1","parameterCategory":2,"la1":30.2991,"la2":30.254,"lo1":-89.0895,"lo2":-89.0444,"dy":0.0017,"dx":0.0017,"nx":28,"ny":28,"refTime":"2025-08-16T09:00:00:Z","depth":"2","parameterNumber":2,"parameterNumberName":"U-component_of_CURRENTS"},"data":[0,0,0,0,0,0,0,0,0,0,0,0,0,0,0,0,0,0,0,0,0,0,0,0,0,0,0,0,0,0,0,0,0,0,0,0,0,0,0,0,0,0,0,0,0,0,0,0,0,0,0,0,0,0,0,0,0,0,0.2178,0.2178,0,0.2174,0.2174,0.2174,0.2166,0.2166,0.2165,0.2165,0.2213,0.2214,0.2216,0,0,0,0,0,0,0,0,0,0,0,0,0,0.2188,0.2188,0.2178,0.2178,0.2177,0.2174,0.2174,0.2175,0.2166,0.2166,0.2165,0.2165,0.2212,0.2214,0.2216,0,0,0,0,0,0,0,0,0,0,0,0,0,0.2187,0.2188,0.2178,0.2171,0.217,0.2174,0.2174,0.2175,0.2167,0.2166,0.2165,0.2165,0.2212,0.2214,0.2217,0.2246,0,0,0.2224,0.2226,0,0,0,0,0,0,0,0,0.2187,0.2187,0.2172,0.2171,0.217,0.2167,0.2195,0.22,0.2167,0.2171,0.2165,0.2164,0.2201,0.2204,0.2209,0.2248,0.225,0.2225,0.2226,0.2227,0.2228,0,0,0,0,0,0,0,0.2187,0.2187,0.218,0.2172,0.217,0.217,0.217,0.2196,0.2193,0.2171,0.2169,0.2164,0.2201,0.2206,0.221,0.2251,0.2225,0.2227,0.2228,0.2229,0.2341,0.2343,0,0,0,0,0,0,0.2181,0.2187,0.218,0.2179,0.2173,0.217,0.217,0.2171,0.2192,0.2193,0.2165,0.2163,0.2202,0.2207,0.2212,0.2289,0.2227,0.223,0.2231,0.234,0.2342,0.2343,0,0,0,0,0,0,0.2182,0.2181,0.218,0.218,0.2179,0.217,0.2173,0.2172,0.2184,0.2186,0.2189,0.2178,0.2202,0.2208,0.2238,0.2289,0.2231,0.2233,0.2338,0.234,0.2342,0.2417,0,0,0,0,0,0,0.2182,0.2181,0.2185,0.218,0.2179,0.2185,0.2173,0.2172,0.218,0.2179,0.2199,0.2202,0.2202,0.2234,0.224,0.2292,0.2235,0.2336,0.2339,0.2342,0.2413,0.2422,0.2429,0,0,0,0,0,0.2183,0.2185,0.2186,0.2185,0.2184,0.2186,0.2186,0.2179,0.2181,0.2189,0.2201,0.2202,0.2256,0.2237,0.2244,0.2297,0.2335,0.2338,0.2341,0.241,0.242,0.2429,0,0,0,0,0,0,0.2189,0.2184,0.2185,0.2185,0.2188,0.2183,0.2191,0.219,0.2206,0.2211,0.2216,0.222,0.227,0.2267,0.2246,0.2336,0.2298,0.2303,0.2348,0.2358,0.2366,0.2362,0.2237,0,0,0,0,0,0.2193,0.22,0.2193,0.2199,0.2202,0.2203,0.2206,0.2202,0.2211,0.2217,0.2233,0.2255,0.229,0.2307,0.2329,0.2376,0.2378,0.2415,0.2423,0.243,0.2431,0.2478,0.249,0.2354,0.2354,0.2354,0,0,0.2195,0.2198,0.2199,0.2202,0.2209,0.2224,0.2205,0.2214,0.2231,0.2223,0.2262,0.2286,0.2307,0.2359,0.2382,0.2364,0.2471,0.2435,0.2441,0.2438,0.2482,0.2496,0.2508,0.2356,0.2356,0.2355,0,0,0.2206,0.2212,0.222,0.2227,0.2234,0.2243,0.2249,0.2255,0.2263,0.2296,0.2306,0.2349,0.2393,0.2421,0.2441,0.2506,0.2513,0.2526,0.257,0.2615,0.2627,0.2637,0.266,0.2672,0.2531,0.2531,0.2531,0,0.2216,0.222,0.2223,0.2237,0.2248,0.2257,0.2274,0.2289,0.2304,0.2324,0.2315,0.2406,0.2422,0.25,0.2524,0.2528,0.2547,0.2533,0.2627,0.2637,0.2646,0.2667,0.2679,0.2535,0.2535,0.2534,0.2534,0,0.2228,0.2237,0.2248,0.2276,0.2292,0.2308,0.2325,0.2352,0.2373,0.239,0.2459,0.2483,0.2533,0.2562,0.2566,0.2655,0.2646,0.2633,0.2603,0.2665,0.2682,0.2693,0.2541,0.2539,0.2538,0.2537,0,0,0.223,0.2253,0.2254,0.2269,0.2312,0.2322,0.2374,0.2415,0.2446,0.2487,0.2543,0.261,0.2626,0.2649,0.2672,0.2718,0.2803,0.2712,0.2712,0.2735,0.2901,0.2788,0.2789,0.2818,0.2821,0.2822,0.2888,0,0.2241,0.2262,0.228,0.2316,0.233,0.2368,0.2417,0.246,0.2493,0.2552,0.2606,0.267,0.2659,0.2701,0.2745,0.2795,0.2836,0.2785,0.2836,0.2837,0.2731,0.2799,0.2572,0.2602,0.2899,0.2901,0.2902,0,0.2234,0.2254,0.2283,0.233,0.2343,0.2376,0.2449,0.249,0.2576,0.2615,0.2686,0.2721,0.2816,0.2791,0.2891,0.2865,0.2888,0.2913,0.2916,0.2789,0.2744,0.2588,0.2611,0.292,0.2919,0.2917,0.2916,0,0.2207,0.2248,0.2274,0.2289,0.2356,0.2385,0.2431,0.2506,0.2559,0.2662,0.2722,0.2806,0.2872,0.2921,0.2958,0.2944,0.3054,0.3033,0.2948,0.294,0.2741,0.271,0.3098,0.3098,0.3098,0.3097,0.3097,0,0.2192,0.2207,0.2259,0.2268,0.2314,0.237,0.243,0.2486,0.2596,0.2663,0.2751,0.2814,0.2913,0.2974,0.2993,0.2998,0.3077,0.2965,0.2956,0.2759,0.273,0.2995,0.2982,0.31,0.3099,0.3099,0.3098,0,0.2142,0.2177,0.2206,0.2273,0.2295,0.2325,0.2431,0.2474,0.259,0.2683,0.2736,0.2864,0.2937,0.2999,0.3083,0.3032,0.3056,0.3034,0.2783,0.2742,0.2903,0.2894,0.2953,0.2949,0.2947,0.2944,0.2942,0,0.2114,0.2127,0.2191,0.2211,0.2237,0.2297,0.2341,0.2461,0.2505,0.2684,0.272,0.2851,0.2882,0.296,0.2926,0.293,0.3017,0.2703,0.2622,0.2907,0.2893,0.2888,0.2882,0.2397,0.2391,0.2386,0.2382,0,0.2074,0.2103,0.2127,0.2165,0.2201,0.2245,0.2303,0.2342,0.2479,0.2564,0.2646,0.2699,0.2767,0.2658,0.267,0.2639,0.2681,0.2596,0.2985,0.2457,0.2385,0.237,0.2383,0.2336,0.2341,0.2344,0.2347,0.2349,0.2042,0.2047,0.2086,0.2111,0.2153,0.2163,0.2151,0.2215,0.2277,0.2345,0.2465,0.2464,0.2479,0.2373,0.2296,0.2242,0.2425,0.231,0.2326,0.2347,0.2258,0.2184,0.2081,0.2084,0.2087,0.2089,0.2091,0,0.1999,0.2008,0.2029,0.204,0.2045,0.2101,0.2106,0.2068,0.2057,0.2145,0.2183,0.2014,0.194,0.1978,0.1813,0.1784,0.1771,0.1718,0.1689,0.1736,0.1777,0.1659,0.1323,0.132,0.1318,0.1316,0,0,0.1975,0.1967,0.1967,0.1937,0.1948,0.189,0.1863,0.181,0.1812,0.1775,0.1759,0.1885,0.1929,0.1618,0.1558,0.1417,0.1572,0.136,0.198,0.1995,0.2033,0.2122,0.1992,0,0,0,0,0]},{"header":{"parameterUnit":"m.s-1","parameterCategory":2,"la1":30.2991,"la2":30.254,"lo1":-89.0895,"lo2":-89.0444,"dy":0.0017,"dx":0.0017,"nx":28,"ny":28,"refTime":"2025-08-16T09:00:00:Z","depth":"2","parameterNumber":3,"parameterNumberName":"V-component_of_CURRENTS"},"data":[0,0,0,0,0,0,0,0,0,0,0,0,0,0,0,0,0,0,0,0,0,0,0,0,0,0,0,0,0,0,0,0,0,0,0,0,0,0,0,0,0,0,0,0,0,0,0,0,0,0,0,0,0,0,0,0,0,0,0.0125,0.0125,0,0.0099,0.0099,0.0099,0.0077,0.0077,0.0077,0.0077,0.0043,0.0043,0.0042,0,0,0,0,0,0,0,0,0,0,0,0,0,0.0121,0.0122,0.0125,0.0125,0.0125,0.0099,0.0099,0.0098,0.0077,0.0077,0.0077,0.0077,0.0044,0.0043,0.0042,0,0,0,0,0,0,0,0,0,0,0,0,0,0.0111,0.0122,0.0125,0.0112,0.011,0.0099,0.0099,0.0098,0.0077,0.0077,0.0077,0.0077,0.0044,0.0043,0.0042,0.0039,0,0,0.0038,0.0038,0,0,0,0,0,0,0,0,0.0112,0.0112,0.0114,0.0113,0.0111,0.0092,0.0085,0.0079,0.0078,0.0089,0.0077,0.0077,0.006,0.0057,0.0052,0.0038,0.0036,0.0038,0.0038,0.0037,0.0037,0,0,0,0,0,0,0,0.0113,0.0112,0.0114,0.0114,0.0112,0.0095,0.0093,0.0084,0.0075,0.0088,0.0087,0.0085,0.0059,0.0053,0.0051,0.0036,0.0038,0.0037,0.0037,0.0036,0.0032,0.0032,0,0,0,0,0,0,0.012,0.0113,0.0115,0.0113,0.0112,0.0095,0.0094,0.0098,0.0076,0.0072,0.0085,0.0084,0.0055,0.0052,0.005,0.0061,0.0037,0.0036,0.0035,0.0031,0.0032,0.0032,0,0,0,0,0,0,0.012,0.012,0.0116,0.0113,0.0111,0.0096,0.01,0.0097,0.0095,0.0074,0.007,0.0087,0.0055,0.0051,0.0047,0.0059,0.0036,0.0034,0.003,0.0031,0.0032,0.0074,0,0,0,0,0,0,0.012,0.0121,0.0125,0.0114,0.0112,0.0117,0.0101,0.0097,0.0094,0.0093,0.0073,0.007,0.0054,0.0049,0.0046,0.0057,0.0034,0.003,0.0031,0.0032,0.0072,0.0077,0.008,0,0,0,0,0,0.012,0.0129,0.0126,0.0126,0.0119,0.0118,0.0116,0.0103,0.0095,0.0099,0.0085,0.0071,0.0054,0.0049,0.0045,0.0056,0.0029,0.0031,0.0032,0.0071,0.0076,0.008,0,0,0,0,0,0,0.0127,0.0128,0.0124,0.0132,0.0129,0.0115,0.0116,0.0108,0.01,0.0096,0.0076,0.0072,0.0074,0.0059,0.0055,0.0058,0.004,0.004,0.007,0.0075,0.0079,0.0101,0.0033,0,0,0,0,0,0.0133,0.0141,0.0136,0.0143,0.0144,0.0131,0.0129,0.012,0.0111,0.0107,0.0095,0.0082,0.0076,0.0071,0.0063,0.0063,0.0051,0.0068,0.0072,0.0076,0.0092,0.0082,0.0086,0.0036,0.0036,0.0036,0,0,0.0136,0.0138,0.0142,0.0145,0.0141,0.0151,0.0129,0.0128,0.0136,0.0104,0.0111,0.0096,0.008,0.0082,0.0082,0.0071,0.0081,0.0077,0.008,0.0095,0.0084,0.0088,0.0093,0.0037,0.0037,0.0037,0,0,0.0152,0.0151,0.0167,0.017,0.0169,0.0163,0.0166,0.0157,0.0154,0.0156,0.0137,0.0132,0.012,0.0113,0.0107,0.0128,0.0104,0.0123,0.0159,0.0149,0.0154,0.0157,0.0138,0.0139,0.0123,0.0123,0.0123,0,0.0157,0.0178,0.0169,0.0187,0.0197,0.0174,0.0195,0.0187,0.0177,0.0185,0.0165,0.0159,0.0138,0.015,0.0154,0.0139,0.0126,0.0142,0.0155,0.0158,0.0161,0.0141,0.0142,0.0126,0.0125,0.0125,0.0125,0,0.0189,0.0204,0.0214,0.0233,0.0241,0.0252,0.0248,0.025,0.024,0.0237,0.0246,0.0215,0.0214,0.0202,0.0183,0.0198,0.0179,0.0162,0.0144,0.0169,0.0145,0.0146,0.0129,0.0128,0.0127,0.0127,0,0,0.0206,0.0233,0.0237,0.026,0.0269,0.0282,0.0296,0.0313,0.0332,0.0311,0.0342,0.0315,0.0297,0.029,0.0261,0.0249,0.0245,0.0218,0.0216,0.0201,0.0218,0.0179,0.0175,0.0229,0.023,0.023,0.019,0,0.0236,0.0282,0.0287,0.0332,0.0358,0.0353,0.0376,0.0385,0.0381,0.04,0.0372,0.0386,0.033,0.0333,0.0309,0.0271,0.025,0.0257,0.0195,0.0193,0.0157,0.0176,0.0196,0.016,0.019,0.019,0.019,0,0.0271,0.0301,0.0351,0.0397,0.041,0.0431,0.0471,0.0489,0.0501,0.0505,0.0501,0.0478,0.0465,0.0412,0.0348,0.0355,0.0293,0.0252,0.0249,0.0203,0.0155,0.0142,0.0159,0.0191,0.0191,0.0191,0.019,0,0.03,0.0348,0.0393,0.0408,0.0452,0.0477,0.0501,0.0522,0.0561,0.0576,0.0608,0.0568,0.0568,0.0489,0.0386,0.0373,0.0312,0.028,0.0184,0.018,0.0182,0.0177,0.0236,0.0236,0.0237,0.0237,0.0237,0,0.0337,0.0374,0.041,0.0437,0.0502,0.0518,0.0587,0.0601,0.0648,0.0714,0.0666,0.0701,0.059,0.0535,0.0424,0.0306,0.0334,0.0201,0.0173,0.0194,0.0191,0.0207,0.0205,0.0235,0.0235,0.0236,0.0236,0,0.0363,0.0383,0.0442,0.0496,0.0517,0.0566,0.0655,0.0709,0.0739,0.0823,0.0842,0.0817,0.0747,0.0615,0.0491,0.0366,0.0251,0.0198,0.0224,0.02,0.0114,0.0114,0.0095,0.0094,0.0092,0.0091,0.009,0,0.0382,0.0413,0.0485,0.0531,0.0558,0.0635,0.0697,0.0751,0.082,0.0897,0.0948,0.0909,0.0883,0.0672,0.0468,0.0268,0.0245,0.014,0.0114,0.0128,0.0103,0.0105,0.0107,0.0128,0.0128,0.0127,0.0127,0,0.0421,0.0442,0.0492,0.0584,0.0654,0.0747,0.0837,0.0907,0.0986,0.1052,0.1115,0.1098,0.0908,0.0711,0.0431,0.0294,0.017,0.0122,0.0149,0.0156,0.0155,0.0131,0.0133,0.0123,0.0123,0.0124,0.0124,0.0124,0.0448,0.049,0.0555,0.0646,0.0733,0.0848,0.0927,0.1027,0.1139,0.1232,0.1216,0.1187,0.0964,0.0607,0.0378,0.014,0.0147,0.0051,0.0055,0.0059,0.0064,0.0061,0.0012,0.0012,0.0011,0.0011,0.0011,0,0.0485,0.0534,0.0617,0.0725,0.083,0.0874,0.1016,0.1092,0.1214,0.1285,0.1316,0.1098,0.0882,0.0637,0.0284,0.0058,0.0054,-0.0012,0.0038,0.0044,0.0048,0.0055,-0.0001,-0.0002,-0.0003,-0.0003,0,0,0.0505,0.058,0.0622,0.0786,0.0873,0.1005,0.1087,0.118,0.1251,0.1306,0.1292,0.1243,0.095,0.0688,0.0399,0.0205,0.0174,0.0162,0.0195,0.0293,0.0301,0.0104,0.0122,0,0,0,0,0]}],[{"header":{"parameterUnit":"m.s-1","parameterCategory":2,"la1":30.2991,"la2":30.254,"lo1":-89.0895,"lo2":-89.0444,"dy":0.0017,"dx":0.0017,"nx":28,"ny":28,"refTime":"2025-08-16T09:00:00:Z","depth":"4","parameterNumber":2,"parameterNumberName":"U-component_of_CURRENTS"},"data":[0,0,0,0,0,0,0,0,0,0,0,0,0,0,0,0,0,0,0,0,0,0,0,0,0,0,0,0,0,0,0,0,0,0,0,0,0,0,0,0,0,0,0,0,0,0,0,0,0,0,0,0,0,0,0,0,0,0,0.1287,0.1288,0,0.1308,0.1308,0.1308,0.1345,0.1345,0.1346,0.1347,0.1358,0.1358,0.1358,0,0,0,0,0,0,0,0,0,0,0,0,0,0.1271,0.1271,0.1287,0.1288,0.1288,0.1308,0.1308,0.1308,0.1344,0.1345,0.1346,0.1347,0.1358,0.1358,0.1357,0,0,0,0,0,0,0,0,0,0,0,0,0,0.1282,0.1271,0.1287,0.1309,0.1311,0.1308,0.1308,0.1308,0.1344,0.1345,0.1347,0.1348,0.1359,0.1358,0.1357,0.133,0,0,0.1355,0.1355,0,0,0,0,0,0,0,0,0.1282,0.1283,0.1306,0.1308,0.131,0.1326,0.1306,0.1315,0.1344,0.1331,0.1347,0.1348,0.1346,0.1347,0.1347,0.1331,0.1331,0.1355,0.1355,0.1355,0.1355,0,0,0,0,0,0,0,0.1281,0.1282,0.1294,0.1306,0.1309,0.1315,0.1318,0.1308,0.1331,0.1332,0.1335,0.1338,0.1348,0.1347,0.1347,0.1331,0.1355,0.1355,0.1354,0.1354,0.1412,0.1413,0,0,0,0,0,0,0.1279,0.1281,0.1294,0.1295,0.13,0.1314,0.1318,0.1319,0.1331,0.1335,0.1337,0.134,0.1348,0.1348,0.1348,0.1407,0.1355,0.1354,0.1354,0.141,0.1412,0.1414,0,0,0,0,0,0,0.1279,0.128,0.1293,0.129,0.1292,0.1314,0.1314,0.1319,0.1349,0.1336,0.1339,0.1368,0.1349,0.1349,0.137,0.1404,0.1354,0.1353,0.1408,0.141,0.1413,0.1467,0,0,0,0,0,0,0.1278,0.128,0.1295,0.1289,0.1292,0.1308,0.1314,0.1318,0.1348,0.1352,0.1362,0.1362,0.135,0.1371,0.1369,0.1402,0.1353,0.1405,0.1409,0.1412,0.1462,0.1471,0.1478,0,0,0,0,0,0.1277,0.1286,0.1296,0.1298,0.1308,0.1308,0.1311,0.1329,0.1349,0.1362,0.1376,0.1364,0.1393,0.1371,0.1369,0.1403,0.1403,0.1408,0.1412,0.1459,0.1469,0.1478,0,0,0,0,0,0,0.1285,0.129,0.1301,0.1312,0.132,0.1315,0.1333,0.1345,0.1367,0.1383,0.1374,0.1375,0.1407,0.14,0.1376,0.1434,0.1402,0.1406,0.1438,0.1448,0.1456,0.1443,0.1352,0,0,0,0,0,0.1293,0.1307,0.1307,0.1321,0.1326,0.1337,0.1347,0.136,0.137,0.1383,0.139,0.1405,0.1416,0.143,0.1431,0.1454,0.1454,0.1482,0.149,0.1496,0.1487,0.1538,0.155,0.1428,0.1428,0.1428,0,0,0.1301,0.1307,0.1316,0.1325,0.1335,0.1341,0.1347,0.1369,0.1386,0.1378,0.1414,0.1426,0.1428,0.1457,0.1473,0.1461,0.1531,0.1502,0.1507,0.1494,0.1544,0.1556,0.1566,0.1431,0.1431,0.143,0,0,0.1311,0.1328,0.134,0.1348,0.1367,0.1368,0.1382,0.1395,0.1418,0.1446,0.1452,0.1488,0.1502,0.1514,0.1521,0.1574,0.1566,0.1588,0.1621,0.1672,0.1682,0.1691,0.1703,0.1712,0.1599,0.1599,0.1599,0,0.1327,0.1333,0.1344,0.1354,0.1364,0.1383,0.1394,0.1411,0.1435,0.1459,0.147,0.1523,0.1528,0.1565,0.1589,0.159,0.1606,0.1582,0.1681,0.169,0.1698,0.1708,0.1718,0.1602,0.1602,0.1601,0.1601,0,0.1329,0.135,0.1357,0.1375,0.1387,0.1402,0.1418,0.1451,0.1485,0.1505,0.1563,0.1579,0.1618,0.1632,0.1623,0.1688,0.1676,0.1679,0.1653,0.1713,0.172,0.173,0.1607,0.1605,0.1605,0.1604,0,0,0.1324,0.1355,0.1362,0.1376,0.1402,0.1407,0.1446,0.1477,0.1517,0.1561,0.1616,0.1649,0.1681,0.169,0.1701,0.1739,0.1811,0.1738,0.174,0.1741,0.1904,0.1767,0.1763,0.1841,0.1843,0.1845,0.1885,0,0.1327,0.1348,0.1364,0.139,0.1397,0.1432,0.1459,0.15,0.1548,0.1607,0.1652,0.1707,0.1697,0.1739,0.1776,0.1804,0.1838,0.1797,0.1852,0.1853,0.1717,0.1771,0.1851,0.1891,0.1893,0.1895,0.1896,0,0.1314,0.1333,0.1357,0.1396,0.1405,0.143,0.149,0.1522,0.1602,0.1649,0.172,0.176,0.1828,0.182,0.1894,0.1874,0.1892,0.1903,0.1906,0.176,0.1732,0.1821,0.1912,0.1911,0.1909,0.1908,0.1907,0,0.1279,0.1324,0.1346,0.1358,0.1404,0.144,0.1475,0.1544,0.1588,0.1695,0.1753,0.1827,0.1894,0.193,0.1961,0.1948,0.2027,0.2018,0.1902,0.1892,0.1978,0.1968,0.2068,0.2068,0.2068,0.2068,0.2068,0,0.1247,0.1271,0.1341,0.1349,0.139,0.1433,0.1493,0.1544,0.1636,0.1687,0.1783,0.1838,0.1932,0.1987,0.1991,0.1966,0.2062,0.1902,0.1897,0.1999,0.1991,0.1984,0.1973,0.207,0.2069,0.2069,0.2069,0,0.1193,0.1238,0.1268,0.1339,0.137,0.1401,0.1498,0.1533,0.1638,0.1716,0.1761,0.1883,0.1948,0.2001,0.2067,0.1998,0.1992,0.1959,0.205,0.2051,0.181,0.1803,0.1827,0.1822,0.1819,0.1815,0.1813,0,0.1162,0.1174,0.1256,0.1277,0.1316,0.1382,0.1416,0.1522,0.1562,0.1717,0.1738,0.1863,0.1923,0.1902,0.1965,0.1957,0.1933,0.1904,0.1854,0.1794,0.1789,0.1787,0.1784,0.1807,0.1806,0.1805,0.1804,0,0.1105,0.1148,0.1171,0.1217,0.1262,0.1303,0.1369,0.1394,0.1509,0.1627,0.1683,0.1723,0.1789,0.1825,0.1837,0.1826,0.1907,0.1865,0.1872,0.1825,0.1771,0.1768,0.177,0.1791,0.1793,0.1794,0.1795,0,0.1071,0.1069,0.1107,0.1136,0.1192,0.1203,0.125,0.1297,0.1357,0.1523,0.154,0.1662,0.1779,0.1758,0.1765,0.1747,0.1713,0.1637,0.1655,0.167,0.1597,0.1503,0.1437,0,0,0,0,0,0.1029,0.1006,0.1021,0.1038,0.1093,0.1126,0.1203,0.1252,0.1376,0.1371,0.1453,0.1504,0.1539,0.1604,0.1552,0.1679,0.1709,0.1606,0.1628,0.1719,0.1734,0.1661,0,0,0,0,0,0,0.0992,0.1,0.0984,0.0962,0.0963,0.1004,0.1051,0.1128,0.1134,0.1271,0.1305,0.1402,0.1465,0.1562,0.1526,0.1538,0.1514,0.168,0.1675,0.1711,0.1724,0.1736,0.1666,0,0,0,0,0]},{"header":{"parameterUnit":"m.s-1","parameterCategory":2,"la1":30.2991,"la2":30.254,"lo1":-89.0895,"lo2":-89.0444,"dy":0.0017,"dx":0.0017,"nx":28,"ny":28,"refTime":"2025-08-16T09:00:00:Z","depth":"4","parameterNumber":3,"parameterNumberName":"V-component_of_CURRENTS"},"data":[0,0,0,0,0,0,0,0,0,0,0,0,0,0,0,0,0,0,0,0,0,0,0,0,0,0,0,0,0,0,0,0,0,0,0,0,0,0,0,0,0,0,0,0,0,0,0,0,0,0,0,0,0,0,0,0,0,0,0.0088,0.0088,0,0.0074,0.0073,0.0073,0.006,0.006,0.0059,0.0059,0.0043,0.0042,0.0042,0,0,0,0,0,0,0,0,0,0,0,0,0,0.008,0.0081,0.0088,0.0088,0.0088,0.0074,0.0073,0.0073,0.006,0.006,0.0059,0.0059,0.0043,0.0042,0.0042,0,0,0,0,0,0,0,0,0,0,0,0,0,0.0076,0.0081,0.0088,0.008,0.0079,0.0074,0.0073,0.0073,0.006,0.006,0.0059,0.0059,0.0043,0.0042,0.0042,0.0041,0,0,0.004,0.004,0,0,0,0,0,0,0,0,0.0076,0.0076,0.0081,0.0081,0.008,0.0069,0.0065,0.0063,0.006,0.0066,0.0059,0.0059,0.0052,0.0051,0.0047,0.004,0.004,0.004,0.004,0.004,0.0039,0,0,0,0,0,0,0,0.0076,0.0076,0.0081,0.0081,0.008,0.0069,0.0069,0.0064,0.0059,0.0066,0.0065,0.0065,0.0051,0.0048,0.0047,0.0039,0.004,0.004,0.0039,0.0039,0.004,0.004,0,0,0,0,0,0,0.0081,0.0077,0.0082,0.0081,0.0079,0.007,0.0069,0.0072,0.0059,0.0058,0.0065,0.0064,0.0049,0.0047,0.0046,0.0055,0.004,0.0039,0.0039,0.0039,0.004,0.004,0,0,0,0,0,0,0.0081,0.0082,0.0082,0.0079,0.0078,0.007,0.0074,0.0072,0.0071,0.0059,0.0057,0.0067,0.0048,0.0047,0.0047,0.0054,0.0039,0.0038,0.0039,0.0039,0.004,0.0066,0,0,0,0,0,0,0.0081,0.0082,0.0087,0.008,0.0079,0.0085,0.0074,0.0072,0.0072,0.0071,0.006,0.0058,0.0048,0.0048,0.0047,0.0053,0.0038,0.0038,0.0039,0.004,0.0065,0.0068,0.007,0,0,0,0,0,0.0081,0.0089,0.0087,0.0088,0.0085,0.0086,0.0085,0.0077,0.0072,0.0075,0.0068,0.0059,0.0051,0.0048,0.0046,0.0052,0.0038,0.0039,0.004,0.0064,0.0067,0.007,0,0,0,0,0,0,0.0086,0.0088,0.0086,0.0093,0.0093,0.0084,0.0086,0.0081,0.0077,0.0075,0.0063,0.0061,0.0064,0.0055,0.0052,0.0054,0.0043,0.0043,0.0062,0.0065,0.0067,0.0075,0.0037,0,0,0,0,0,0.009,0.0097,0.0095,0.0101,0.0103,0.0095,0.0095,0.0089,0.0085,0.0083,0.0076,0.0069,0.0065,0.0063,0.0058,0.006,0.0039,0.0062,0.0065,0.0067,0.0072,0.0044,0.0044,0.0043,0.0043,0.0043,0,0,0.0092,0.0095,0.0098,0.0103,0.0101,0.0109,0.0095,0.0096,0.0102,0.0082,0.0089,0.0078,0.0068,0.007,0.007,0.0064,0.0056,0.0068,0.007,0.0074,0.0045,0.0045,0.0045,0.0043,0.0043,0.0043,0,0,0.0104,0.0105,0.0116,0.012,0.0121,0.0118,0.0121,0.0117,0.0115,0.0119,0.0106,0.0099,0.0097,0.0088,0.0083,0.0097,0.007,0.0096,0.0114,0.0087,0.0087,0.0086,0.0054,0.0051,0.0096,0.0096,0.0097,0,0.0107,0.0122,0.0119,0.0131,0.014,0.0126,0.0142,0.0137,0.0133,0.0135,0.0126,0.0116,0.0105,0.0105,0.0109,0.0102,0.0081,0.0104,0.0089,0.0089,0.0088,0.0055,0.0051,0.0098,0.0098,0.0098,0.0097,0,0.0129,0.0142,0.0148,0.0163,0.0171,0.0179,0.0178,0.0179,0.0175,0.017,0.0169,0.0149,0.0144,0.0137,0.0128,0.012,0.0105,0.0096,0.0081,0.0089,0.0055,0.005,0.01,0.0099,0.0099,0.0099,0,0,0.0138,0.016,0.0164,0.0181,0.019,0.02,0.021,0.0218,0.0227,0.0211,0.0221,0.0203,0.0188,0.0182,0.0163,0.0138,0.0109,0.0118,0.0116,0.0086,0.0044,0.0042,0.0036,0.0096,0.0096,0.0095,0.002,0,0.0157,0.019,0.0197,0.023,0.025,0.0247,0.0262,0.0265,0.026,0.0263,0.0233,0.0235,0.0206,0.0205,0.0174,0.0131,0.0099,0.013,0.0042,0.0039,0.0035,0.0031,0.0094,0.0016,0.0015,0.0014,0.0014,0,0.0179,0.0202,0.0239,0.0273,0.0282,0.03,0.0324,0.0334,0.0328,0.0326,0.031,0.0286,0.0255,0.0229,0.0145,0.0166,0.0111,0.0068,0.0063,0.0051,0.0028,0.0008,0.0005,0.0005,0.0006,0.0007,0.0007,0,0.0195,0.0232,0.0266,0.0277,0.0311,0.0329,0.0347,0.0353,0.0374,0.0365,0.0375,0.0325,0.031,0.0231,0.014,0.0143,0.0039,0.0031,-0.0028,-0.003,-0.0018,-0.0016,-0.0032,-0.0032,-0.0032,-0.0032,-0.0032,0,0.0215,0.0244,0.0278,0.0297,0.0345,0.0358,0.0405,0.0408,0.0427,0.0454,0.041,0.0411,0.0311,0.0239,0.0148,0.0043,0.004,-0.0026,-0.0048,-0.0005,-0.0002,-0.0022,-0.002,-0.0035,-0.0034,-0.0034,-0.0033,0,0.0228,0.0247,0.0291,0.0335,0.0354,0.0389,0.0453,0.0484,0.0493,0.0523,0.0525,0.0476,0.0387,0.027,0.0139,0.0065,-0.0043,-0.0083,-0.0034,-0.0052,-0.0096,-0.0092,-0.0149,-0.0149,-0.015,-0.015,-0.0151,0,0.0237,0.0259,0.0319,0.0356,0.038,0.0439,0.0483,0.0515,0.0551,0.056,0.0574,0.0504,0.0455,0.0267,0.0142,-0.0039,-0.0062,-0.0124,-0.0104,-0.0092,-0.0108,-0.0102,-0.0097,-0.0152,-0.0152,-0.0152,-0.0152,0,0.0256,0.0276,0.0314,0.0386,0.044,0.0507,0.0568,0.0599,0.0632,0.064,0.0618,0.0525,0.0425,0.0278,0.0135,0.0005,-0.0086,-0.0131,-0.013,-0.0111,-0.0096,-0.011,-0.0104,-0.0154,-0.0154,-0.0154,-0.0153,0,0.027,0.0298,0.0348,0.0416,0.0486,0.0553,0.0587,0.063,0.0662,0.0666,0.0654,0.0544,0.0482,0.03,0.0166,0.004,0.0015,-0.0027,-0.0032,-0.0032,0.0025,0.0063,0.0035,0,0,0,0,0,0.0283,0.0316,0.0377,0.0448,0.052,0.0562,0.0635,0.0664,0.0689,0.0681,0.0672,0.0576,0.0395,0.0318,0.0194,0.015,-0.0014,-0.0,-0.0067,-0.0165,-0.0163,-0.0116,0,0,0,0,0,0,0.0289,0.0341,0.0373,0.0466,0.0519,0.0598,0.0645,0.0664,0.0665,0.0668,0.0577,0.0536,0.0362,0.0462,0.0188,0.0151,0.009,-0.0082,-0.0085,-0.0166,-0.0164,-0.0162,-0.0113,0,0,0,0,0]}]]